TGW511 VVDN-WSSS

Flight info

Callsign TGW511
Flight time 2h 25m
Altitude 36000
Route SADIN1G SADIN Q1 AC L644 CN L642 ESPOB/N0460F360 Q801 ESBUM/N0460F370 Q802 ELALO ELALO1A
Aircraft A320/M-SDFGHIRWYZ/LB1

Departure

Time 2026-05-06 16:56
Airport Da Nang International Airport (VVDN)

Arrival

Time 2026-05-06 19:21
Airport Singapore Changi Airport (WSSS)
Time Latitude Longitude Altitude Speed Heading
2026-05-06 16:32 16.05780 108.20130 35 ft 0 kts 81°
2026-05-06 16:45 16.05778 108.20116 34 ft 4 kts 81°
2026-05-06 16:45 16.05774 108.20088 33 ft 4 kts 82°
2026-05-06 16:46 16.05770 108.20060 31 ft 4 kts 83°
2026-05-06 16:46 16.05766 108.20033 32 ft 4 kts 82°
2026-05-06 16:46 16.05763 108.20005 33 ft 3 kts 82°
2026-05-06 16:46 16.05762 108.20000 34 ft 0 kts 82°
2026-05-06 16:48 16.05762 108.20001 33 ft 1 kts 82°
2026-05-06 16:49 16.05763 108.20011 33 ft 2 kts 82°
2026-05-06 16:49 16.05761 108.20030 32 ft 3 kts 115°
2026-05-06 16:49 16.05739 108.20034 34 ft 5 kts 203°
2026-05-06 16:49 16.05715 108.19997 34 ft 7 kts 224°
2026-05-06 16:50 16.05660 108.19998 34 ft 9 kts 169°
2026-05-06 16:50 16.05586 108.20008 34 ft 12 kts 173°
2026-05-06 16:50 16.05493 108.20020 34 ft 15 kts 172°
2026-05-06 16:50 16.05374 108.20038 34 ft 19 kts 172°
2026-05-06 16:51 16.05230 108.20060 34 ft 23 kts 172°
2026-05-06 16:51 16.05059 108.20084 34 ft 27 kts 172°
2026-05-06 16:51 16.04875 108.20111 33 ft 26 kts 172°
2026-05-06 16:51 16.04699 108.20139 34 ft 26 kts 172°
2026-05-06 16:52 16.04516 108.20165 33 ft 27 kts 172°
2026-05-06 16:52 16.04337 108.20193 34 ft 26 kts 172°
2026-05-06 16:52 16.04159 108.20216 34 ft 27 kts 172°
2026-05-06 16:52 16.03982 108.20242 34 ft 26 kts 172°
2026-05-06 16:53 16.03800 108.20267 34 ft 27 kts 172°
2026-05-06 16:53 16.03621 108.20293 34 ft 26 kts 172°
2026-05-06 16:53 16.03439 108.20319 34 ft 27 kts 172°
2026-05-06 16:53 16.03254 108.20347 33 ft 27 kts 171°
2026-05-06 16:54 16.03120 108.20367 32 ft 11 kts 173°
2026-05-06 16:54 16.03075 108.20334 32 ft 10 kts 266°
2026-05-06 16:54 16.03071 108.20255 31 ft 10 kts 266°
2026-05-06 16:54 16.03104 108.20228 31 ft 7 kts 350°
2026-05-06 16:55 16.03169 108.20218 32 ft 19 kts 351°
2026-05-06 16:55 16.03542 108.20163 33 ft 90 kts 352°
2026-05-06 16:55 16.04366 108.20044 33 ft 146 kts 352°
2026-05-06 16:55 16.05434 108.19880 466 ft 155 kts 352°
2026-05-06 16:56 16.06511 108.19791 1054 ft 156 kts 357°
2026-05-06 16:56 16.07592 108.19756 1596 ft 155 kts 359°
2026-05-06 16:56 16.08691 108.19727 1921 ft 166 kts 359°
2026-05-06 16:56 16.09929 108.19693 2076 ft 189 kts 359°
2026-05-06 16:57 16.11326 108.19655 2265 ft 212 kts 359°
2026-05-06 16:57 16.12887 108.19613 2475 ft 237 kts 359°
2026-05-06 16:57 16.14620 108.19567 2786 ft 260 kts 359°
2026-05-06 16:57 16.16427 108.19873 3372 ft 269 kts 28°
2026-05-06 16:58 16.17790 108.21173 4098 ft 271 kts 63°
2026-05-06 16:58 16.18285 108.23048 4861 ft 272 kts 87°
2026-05-06 16:58 16.18249 108.25021 5624 ft 274 kts 95°
2026-05-06 16:58 16.18057 108.27006 6379 ft 278 kts 96°
2026-05-06 16:59 16.17870 108.29018 7068 ft 281 kts 95°
2026-05-06 16:59 16.17741 108.31028 7749 ft 284 kts 93°
2026-05-06 16:59 16.17669 108.33098 8421 ft 288 kts 91°
2026-05-06 16:59 16.17593 108.35191 9085 ft 292 kts 99°
2026-05-06 17:00 16.16845 108.37146 9708 ft 296 kts 128°
2026-05-06 17:00 16.15259 108.38485 10269 ft 298 kts 158°
2026-05-06 17:00 16.13211 108.38896 10661 ft 310 kts 178°
2026-05-06 17:00 16.10982 108.38965 10782 ft 330 kts 180°
2026-05-06 17:01 16.08618 108.38978 10936 ft 348 kts 180°
2026-05-06 17:01 16.06167 108.38974 11362 ft 355 kts 180°
2026-05-06 17:01 16.03684 108.38973 11883 ft 359 kts 180°
2026-05-06 17:01 16.01176 108.38983 12446 ft 362 kts 180°
2026-05-06 17:02 15.98651 108.39006 13003 ft 364 kts 180°
2026-05-06 17:02 15.96108 108.39037 13550 ft 367 kts 180°
2026-05-06 17:02 15.93548 108.39074 14051 ft 369 kts 180°
2026-05-06 17:02 15.90969 108.39113 14518 ft 372 kts 180°
2026-05-06 17:03 15.88370 108.39151 14986 ft 375 kts 180°
2026-05-06 17:03 15.85752 108.39185 15448 ft 378 kts 180°
2026-05-06 17:03 15.83116 108.39219 15912 ft 381 kts 180°
2026-05-06 17:03 15.80458 108.39251 16379 ft 383 kts 180°
2026-05-06 17:04 15.77781 108.39286 16836 ft 386 kts 180°
2026-05-06 17:04 15.75118 108.39324 17291 ft 389 kts 180°
2026-05-06 17:04 15.72401 108.39360 17756 ft 392 kts 180°
2026-05-06 17:04 15.69664 108.39393 18212 ft 395 kts 180°
2026-05-06 17:05 15.66903 108.39427 18615 ft 398 kts 180°
2026-05-06 17:05 15.64123 108.39461 19036 ft 401 kts 180°
2026-05-06 17:05 15.61329 108.39494 19445 ft 403 kts 180°
2026-05-06 17:05 15.58514 108.39527 19855 ft 406 kts 180°
2026-05-06 17:06 15.55690 108.39405 20275 ft 408 kts 188°
2026-05-06 17:06 15.52916 108.38778 20690 ft 410 kts 198°
2026-05-06 17:06 15.50263 108.37668 21096 ft 412 kts 205°
2026-05-06 17:06 15.47649 108.36429 21491 ft 415 kts 205°
2026-05-06 17:07 15.45014 108.35180 21881 ft 417 kts 205°
2026-05-06 17:07 15.42369 108.33924 22263 ft 420 kts 205°
2026-05-06 17:07 15.39705 108.32664 22625 ft 422 kts 205°
2026-05-06 17:07 15.37019 108.31395 22980 ft 425 kts 205°
2026-05-06 17:08 15.34357 108.30137 23313 ft 427 kts 205°
2026-05-06 17:08 15.31645 108.28857 23645 ft 430 kts 205°
2026-05-06 17:08 15.28917 108.27571 23925 ft 432 kts 205°
2026-05-06 17:08 15.26177 108.26281 24211 ft 434 kts 205°
2026-05-06 17:09 15.23425 108.24983 24487 ft 436 kts 205°
2026-05-06 17:09 15.20658 108.23676 24774 ft 437 kts 205°
2026-05-06 17:09 15.17885 108.22366 25047 ft 439 kts 205°
2026-05-06 17:09 15.15100 108.21050 25326 ft 441 kts 205°
2026-05-06 17:10 15.12300 108.19731 25597 ft 443 kts 205°
2026-05-06 17:10 15.09444 108.18530 25863 ft 445 kts 198°
2026-05-06 17:10 15.06419 108.17812 26130 ft 447 kts 188°
2026-05-06 17:10 15.03308 108.17607 26382 ft 450 kts 181°
2026-05-06 17:11 15.00173 108.17549 26635 ft 451 kts 182°
2026-05-06 17:11 14.97028 108.17485 26880 ft 453 kts 182°
2026-05-06 17:11 14.93872 108.17416 27130 ft 455 kts 182°
2026-05-06 17:11 14.90704 108.17346 27378 ft 456 kts 182°
2026-05-06 17:12 14.87522 108.17274 27610 ft 458 kts 182°
2026-05-06 17:12 14.84332 108.17202 27844 ft 460 kts 182°
2026-05-06 17:12 14.81133 108.17129 28150 ft 460 kts 182°
2026-05-06 17:12 14.77935 108.17059 28507 ft 459 kts 182°
2026-05-06 17:13 14.74745 108.16989 28863 ft 458 kts 182°
2026-05-06 17:13 14.71602 108.16920 29225 ft 458 kts 182°
2026-05-06 17:13 14.68419 108.16852 29595 ft 457 kts 182°
2026-05-06 17:13 14.65248 108.16782 29970 ft 456 kts 182°
2026-05-06 17:14 14.62070 108.16708 30296 ft 456 kts 182°
2026-05-06 17:14 14.58897 108.16636 30621 ft 455 kts 182°
2026-05-06 17:14 14.55731 108.16568 30942 ft 455 kts 182°
2026-05-06 17:14 14.52574 108.16503 31257 ft 454 kts 182°
2026-05-06 17:15 14.49415 108.16437 31583 ft 453 kts 182°
2026-05-06 17:15 14.46262 108.16366 31916 ft 453 kts 182°
2026-05-06 17:15 14.43117 108.16297 32252 ft 452 kts 182°
2026-05-06 17:15 14.39974 108.16226 32601 ft 451 kts 182°
2026-05-06 17:16 14.36846 108.16157 32966 ft 450 kts 183°
2026-05-06 17:16 14.33719 108.16088 33321 ft 449 kts 183°
2026-05-06 17:16 14.30600 108.16019 33667 ft 448 kts 183°
2026-05-06 17:16 14.27490 108.15951 33995 ft 447 kts 183°
2026-05-06 17:17 14.24392 108.15887 34285 ft 445 kts 183°
2026-05-06 17:17 14.21291 108.15819 34557 ft 445 kts 183°
2026-05-06 17:17 14.18198 108.15747 34823 ft 444 kts 183°
2026-05-06 17:17 14.15111 108.15679 35090 ft 443 kts 183°
2026-05-06 17:18 14.12028 108.15613 35342 ft 443 kts 183°
2026-05-06 17:18 14.08948 108.15549 35585 ft 442 kts 183°
2026-05-06 17:18 14.05873 108.15486 35827 ft 442 kts 183°
2026-05-06 17:19 13.99700 108.15356 35952 ft 448 kts 183°
2026-05-06 17:19 13.93384 108.15214 35945 ft 457 kts 182°
2026-05-06 17:20 13.87008 108.15079 35939 ft 459 kts 182°
2026-05-06 17:20 13.80625 108.14937 35935 ft 459 kts 182°
2026-05-06 17:21 13.74239 108.14805 35932 ft 459 kts 182°
2026-05-06 17:21 13.67900 108.14659 35931 ft 459 kts 183°
2026-05-06 17:22 13.61520 108.14511 35929 ft 459 kts 182°
2026-05-06 17:22 13.55134 108.14376 35931 ft 459 kts 182°
2026-05-06 17:23 13.48758 108.14241 35931 ft 458 kts 182°
2026-05-06 17:23 13.42383 108.14104 35933 ft 458 kts 182°
2026-05-06 17:24 13.36008 108.13964 35932 ft 458 kts 182°
2026-05-06 17:24 13.29641 108.13818 35934 ft 458 kts 182°
2026-05-06 17:25 13.23276 108.13656 35934 ft 458 kts 182°
2026-05-06 17:25 13.16919 108.13503 35937 ft 458 kts 182°
2026-05-06 17:26 13.10542 108.13348 35939 ft 458 kts 182°
2026-05-06 17:26 13.04177 108.13185 35940 ft 458 kts 182°
2026-05-06 17:27 12.97851 108.13033 35938 ft 458 kts 182°
2026-05-06 17:27 12.91488 108.12890 35940 ft 457 kts 182°
2026-05-06 17:28 12.85123 108.12735 35945 ft 457 kts 182°
2026-05-06 17:28 12.78768 108.12578 35947 ft 457 kts 182°
2026-05-06 17:29 12.72408 108.12423 35947 ft 457 kts 182°
2026-05-06 17:29 12.66060 108.12273 35945 ft 456 kts 182°
2026-05-06 17:30 12.59717 108.12148 35949 ft 456 kts 182°
2026-05-06 17:30 12.53382 108.12035 35949 ft 456 kts 182°
2026-05-06 17:31 12.47040 108.11906 35951 ft 455 kts 182°
2026-05-06 17:31 12.40706 108.11772 35956 ft 455 kts 182°
2026-05-06 17:32 12.34415 108.11646 35957 ft 455 kts 181°
2026-05-06 17:32 12.28090 108.11523 35964 ft 455 kts 181°
2026-05-06 17:33 12.21758 108.11395 35965 ft 455 kts 181°
2026-05-06 17:33 12.15425 108.11272 35967 ft 455 kts 181°
2026-05-06 17:34 12.09089 108.11148 35969 ft 455 kts 181°
2026-05-06 17:34 12.03780 108.11043 35973 ft 456 kts 181°
2026-05-06 17:35 11.97439 108.10886 35971 ft 455 kts 185°
2026-05-06 17:35 11.91385 108.09300 35972 ft 454 kts 205°
2026-05-06 17:36 11.86224 108.05650 35961 ft 453 kts 223°
2026-05-06 17:36 11.83920 108.03453 35960 ft 454 kts 223°
2026-05-06 17:36 11.79294 107.99066 35955 ft 454 kts 223°
2026-05-06 17:37 11.74647 107.94689 35950 ft 455 kts 223°
2026-05-06 17:37 11.69992 107.90306 35946 ft 456 kts 222°
2026-05-06 17:38 11.65330 107.85926 35943 ft 456 kts 222°
2026-05-06 17:38 11.60672 107.81531 35941 ft 456 kts 223°
2026-05-06 17:39 11.56008 107.77125 35935 ft 457 kts 222°
2026-05-06 17:39 11.51343 107.72727 35932 ft 457 kts 222°
2026-05-06 17:40 11.46671 107.68332 35925 ft 457 kts 222°
2026-05-06 17:40 11.41999 107.63950 35915 ft 456 kts 222°
2026-05-06 17:41 11.37333 107.59563 35902 ft 456 kts 222°
2026-05-06 17:41 11.32667 107.55171 35897 ft 457 kts 222°
2026-05-06 17:42 11.28027 107.50815 35889 ft 457 kts 222°
2026-05-06 17:42 11.23355 107.46424 35885 ft 457 kts 222°
2026-05-06 17:43 11.18674 107.42032 35879 ft 458 kts 222°
2026-05-06 17:43 11.13988 107.37642 35876 ft 458 kts 222°
2026-05-06 17:44 11.09305 107.33245 35876 ft 458 kts 222°
2026-05-06 17:44 11.04620 107.28845 35877 ft 458 kts 222°
2026-05-06 17:45 10.99926 107.24450 35873 ft 459 kts 222°
2026-05-06 17:45 10.95073 107.20251 35876 ft 458 kts 212°
2026-05-06 17:46 10.89329 107.17658 35870 ft 456 kts 193°
2026-05-06 17:46 10.83173 107.16112 35864 ft 456 kts 193°
2026-05-06 17:47 10.77012 107.14546 35869 ft 456 kts 193°
2026-05-06 17:47 10.70852 107.12978 35878 ft 456 kts 193°
2026-05-06 17:48 10.64690 107.11424 35881 ft 456 kts 193°
2026-05-06 17:48 10.58532 107.09874 35881 ft 456 kts 193°
2026-05-06 17:49 10.52380 107.08318 35877 ft 455 kts 193°
2026-05-06 17:49 10.46281 107.06770 35878 ft 455 kts 193°
2026-05-06 17:50 10.40144 107.05209 35878 ft 455 kts 193°
2026-05-06 17:50 10.34009 107.03641 35877 ft 454 kts 194°
2026-05-06 17:51 10.27874 107.02071 35877 ft 455 kts 194°
2026-05-06 17:51 10.21736 107.00502 35876 ft 455 kts 193°
2026-05-06 17:52 10.15594 106.98940 35882 ft 455 kts 193°
2026-05-06 17:52 10.09449 106.97372 35882 ft 456 kts 194°
2026-05-06 17:53 10.03297 106.95807 35883 ft 456 kts 194°
2026-05-06 17:53 9.97146 106.94241 35890 ft 456 kts 194°
2026-05-06 17:54 9.90990 106.92673 35890 ft 456 kts 194°
2026-05-06 17:54 9.84826 106.91106 35891 ft 457 kts 194°
2026-05-06 17:55 9.78664 106.89544 35890 ft 457 kts 194°
2026-05-06 17:55 9.72499 106.87974 35888 ft 457 kts 194°
2026-05-06 17:56 9.66340 106.86406 35886 ft 457 kts 194°
2026-05-06 17:56 9.60219 106.84851 35887 ft 457 kts 194°
2026-05-06 17:57 9.54055 106.83274 35887 ft 457 kts 194°
2026-05-06 17:57 9.47891 106.81693 35889 ft 457 kts 194°
2026-05-06 17:58 9.41723 106.80110 35889 ft 457 kts 194°
2026-05-06 17:58 9.35555 106.78540 35889 ft 457 kts 194°
2026-05-06 17:59 9.29386 106.76968 35890 ft 457 kts 194°
2026-05-06 17:59 9.23212 106.75388 35888 ft 458 kts 194°
2026-05-06 18:00 9.17038 106.73811 35888 ft 458 kts 194°
2026-05-06 18:00 9.10866 106.72227 35887 ft 458 kts 194°
2026-05-06 18:01 9.04691 106.70642 35889 ft 458 kts 194°
2026-05-06 18:01 8.98513 106.69064 35890 ft 458 kts 194°
2026-05-06 18:02 8.92378 106.67502 35889 ft 458 kts 194°
2026-05-06 18:02 8.86202 106.65927 35887 ft 458 kts 194°
2026-05-06 18:03 8.80021 106.64354 35889 ft 458 kts 194°
2026-05-06 18:03 8.73887 106.62635 35889 ft 458 kts 201°
2026-05-06 18:04 8.68297 106.59563 35887 ft 458 kts 211°
2026-05-06 18:04 8.62873 106.56178 35887 ft 458 kts 211°
2026-05-06 18:05 8.57441 106.52797 35889 ft 458 kts 211°
2026-05-06 18:05 8.52008 106.49419 35889 ft 458 kts 211°
2026-05-06 18:06 8.46610 106.46069 35890 ft 458 kts 211°
2026-05-06 18:06 8.41176 106.42697 35891 ft 458 kts 211°
2026-05-06 18:07 8.35739 106.39327 35890 ft 458 kts 211°
2026-05-06 18:07 8.30303 106.35962 35890 ft 458 kts 211°
2026-05-06 18:08 8.24867 106.32596 35889 ft 459 kts 211°
2026-05-06 18:08 8.19423 106.29228 35890 ft 459 kts 211°
2026-05-06 18:09 8.13981 106.25858 35888 ft 459 kts 211°
2026-05-06 18:09 8.08537 106.22486 35894 ft 459 kts 211°
2026-05-06 18:10 8.03089 106.19114 35893 ft 459 kts 211°
2026-05-06 18:10 7.97642 106.15738 35893 ft 460 kts 211°
2026-05-06 18:11 7.92224 106.12391 35890 ft 460 kts 211°
2026-05-06 18:11 7.86766 106.09025 35887 ft 460 kts 211°
2026-05-06 18:12 7.81307 106.05649 35894 ft 460 kts 210°
2026-05-06 18:12 7.75849 106.02275 35888 ft 461 kts 211°
2026-05-06 18:13 7.70384 105.98897 35888 ft 461 kts 210°
2026-05-06 18:13 7.64909 105.95516 35857 ft 463 kts 211°
2026-05-06 18:14 7.59396 105.92110 35839 ft 467 kts 211°
2026-05-06 18:14 7.53842 105.88682 35848 ft 469 kts 210°
2026-05-06 18:15 7.48256 105.85237 35844 ft 472 kts 210°
2026-05-06 18:15 7.42638 105.81765 35842 ft 475 kts 211°
2026-05-06 18:16 7.36984 105.78279 35844 ft 477 kts 210°
2026-05-06 18:16 7.31305 105.74776 35842 ft 480 kts 210°
2026-05-06 18:17 7.25589 105.71259 35851 ft 482 kts 210°
2026-05-06 18:17 7.19853 105.67728 35851 ft 484 kts 210°
2026-05-06 18:18 7.14101 105.64188 35871 ft 485 kts 210°
2026-05-06 18:18 7.08378 105.60655 35879 ft 486 kts 210°
2026-05-06 18:19 7.02602 105.57109 35881 ft 486 kts 210°
2026-05-06 18:19 6.96765 105.53667 35887 ft 486 kts 207°
2026-05-06 18:20 6.90722 105.50602 35888 ft 486 kts 204°
2026-05-06 18:20 6.84625 105.47658 35887 ft 486 kts 205°
2026-05-06 18:21 6.78556 105.44635 35887 ft 487 kts 205°
2026-05-06 18:21 6.72514 105.41545 35890 ft 487 kts 206°
2026-05-06 18:22 6.66482 105.38444 35889 ft 487 kts 206°
2026-05-06 18:22 6.60438 105.35363 35888 ft 487 kts 205°
2026-05-06 18:23 6.54391 105.32301 35887 ft 487 kts 205°
2026-05-06 18:23 6.48347 105.29239 35888 ft 487 kts 205°
2026-05-06 18:24 6.42335 105.26184 35887 ft 487 kts 206°
2026-05-06 18:24 6.36297 105.23112 35868 ft 486 kts 206°
2026-05-06 18:25 6.30272 105.20046 35867 ft 486 kts 205°
2026-05-06 18:25 6.24236 105.16985 35864 ft 486 kts 205°
2026-05-06 18:26 6.18203 105.13932 35853 ft 486 kts 205°
2026-05-06 18:26 6.12164 105.10867 35869 ft 486 kts 205°
2026-05-06 18:27 6.06125 105.07794 35873 ft 487 kts 206°
2026-05-06 18:27 6.00078 105.04723 35879 ft 487 kts 205°
2026-05-06 18:28 5.94063 105.01687 35882 ft 487 kts 205°
2026-05-06 18:28 5.88019 104.98629 35862 ft 486 kts 205°
2026-05-06 18:29 5.81984 104.95567 35860 ft 486 kts 205°
2026-05-06 18:29 5.75946 104.92505 35854 ft 486 kts 205°
2026-05-06 18:30 5.69903 104.89442 35857 ft 486 kts 205°
2026-05-06 18:30 5.64880 104.86902 35870 ft 487 kts 205°
2026-05-06 18:31 5.58821 104.83841 35870 ft 488 kts 205°
2026-05-06 18:31 5.52761 104.80776 35873 ft 488 kts 205°
2026-05-06 18:32 5.46704 104.77708 35878 ft 488 kts 205°
2026-05-06 18:32 5.40641 104.74638 35880 ft 488 kts 205°
2026-05-06 18:33 5.34579 104.71567 35881 ft 488 kts 205°
2026-05-06 18:33 5.28516 104.68497 35879 ft 488 kts 205°
2026-05-06 18:34 5.22449 104.65431 35879 ft 488 kts 205°
2026-05-06 18:34 5.16383 104.62366 35881 ft 488 kts 205°
2026-05-06 18:35 5.10309 104.59307 35879 ft 488 kts 205°
2026-05-06 18:35 5.04248 104.56232 35880 ft 488 kts 205°
2026-05-06 18:36 4.98222 104.53179 35881 ft 488 kts 205°
2026-05-06 18:36 4.92149 104.50117 35882 ft 488 kts 204°
2026-05-06 18:37 4.85701 104.48191 35877 ft 483 kts 184°
2026-05-06 18:37 4.79030 104.48493 35876 ft 480 kts 171°
2026-05-06 18:38 4.72395 104.49330 35874 ft 481 kts 172°
2026-05-06 18:38 4.65750 104.50162 35877 ft 482 kts 172°
2026-05-06 18:39 4.59097 104.51001 35878 ft 482 kts 171°
2026-05-06 18:40 4.49124 104.52260 35878 ft 482 kts 171°
2026-05-06 18:40 4.42481 104.53095 35877 ft 481 kts 172°
2026-05-06 18:41 4.35829 104.53937 35878 ft 481 kts 171°
2026-05-06 18:41 4.29181 104.54781 35877 ft 482 kts 172°
2026-05-06 18:42 4.22569 104.55613 35878 ft 482 kts 172°
2026-05-06 18:42 4.15899 104.56385 35882 ft 483 kts 173°
2026-05-06 18:43 4.09201 104.57006 35881 ft 483 kts 174°
2026-05-06 18:43 4.02506 104.57606 35881 ft 483 kts 173°
2026-05-06 18:44 3.95811 104.58246 35881 ft 483 kts 173°
2026-05-06 18:44 3.89118 104.58919 35878 ft 483 kts 173°
2026-05-06 18:45 3.82422 104.59593 35877 ft 484 kts 173°
2026-05-06 18:45 3.75723 104.60252 35880 ft 483 kts 173°
2026-05-06 18:46 3.69031 104.60898 35879 ft 483 kts 173°
2026-05-06 18:46 3.62384 104.61546 35877 ft 483 kts 173°
2026-05-06 18:47 3.55698 104.62200 35878 ft 483 kts 173°
2026-05-06 18:47 3.49004 104.62861 35878 ft 483 kts 173°
2026-05-06 18:48 3.42309 104.63515 35877 ft 484 kts 173°
2026-05-06 18:48 3.35740 104.64154 35858 ft 464 kts 173°
2026-05-06 18:49 3.29354 104.64776 35853 ft 459 kts 173°
2026-05-06 18:49 3.22999 104.65406 35857 ft 459 kts 173°
2026-05-06 18:50 3.16645 104.66032 35851 ft 459 kts 173°
2026-05-06 18:50 3.10285 104.66567 35855 ft 460 kts 180°
2026-05-06 18:51 3.04032 104.65352 35539 ft 468 kts 202°
2026-05-06 18:51 3.01159 104.63814 35303 ft 471 kts 214°
2026-05-06 18:51 2.98626 104.61737 35077 ft 473 kts 225°
2026-05-06 18:51 2.96369 104.59335 34711 ft 474 kts 226°
2026-05-06 18:52 2.94104 104.56910 33782 ft 480 kts 226°
2026-05-06 18:52 2.91810 104.54461 32783 ft 484 kts 226°
2026-05-06 18:52 2.89496 104.51995 31796 ft 488 kts 226°
2026-05-06 18:52 2.87165 104.49510 30835 ft 491 kts 226°
2026-05-06 18:53 2.84822 104.47011 29724 ft 495 kts 226°
2026-05-06 18:53 2.82456 104.44485 28478 ft 499 kts 226°
2026-05-06 18:53 2.80097 104.41965 27859 ft 491 kts 226°
2026-05-06 18:53 2.77783 104.39490 27153 ft 485 kts 226°
2026-05-06 18:54 2.75487 104.37035 26449 ft 481 kts 226°
2026-05-06 18:54 2.73213 104.34602 25748 ft 477 kts 226°
2026-05-06 18:54 2.70957 104.32190 25066 ft 473 kts 226°
2026-05-06 18:54 2.68715 104.29794 24376 ft 470 kts 226°
2026-05-06 18:55 2.66487 104.27416 23697 ft 468 kts 226°
2026-05-06 18:55 2.64297 104.25078 22953 ft 465 kts 226°
2026-05-06 18:55 2.62096 104.22729 22296 ft 460 kts 226°
2026-05-06 18:55 2.59926 104.20410 21657 ft 454 kts 226°
2026-05-06 18:56 2.57796 104.18133 21399 ft 440 kts 226°
2026-05-06 18:56 2.55740 104.15937 21277 ft 426 kts 226°
2026-05-06 18:56 2.53741 104.13810 21148 ft 411 kts 224°
2026-05-06 18:56 2.51602 104.12077 21026 ft 383 kts 209°
2026-05-06 18:57 2.49265 104.10975 20670 ft 364 kts 195°
2026-05-06 18:57 2.46810 104.10501 20267 ft 356 kts 180°
2026-05-06 18:57 2.44361 104.10492 20074 ft 350 kts 177°
2026-05-06 18:57 2.41922 104.10502 19888 ft 350 kts 178°
2026-05-06 18:58 2.39495 104.10503 19618 ft 348 kts 178°
2026-05-06 18:58 2.37080 104.10499 19344 ft 346 kts 178°
2026-05-06 18:58 2.34673 104.10494 19064 ft 345 kts 178°
2026-05-06 18:58 2.32280 104.10491 18793 ft 343 kts 178°
2026-05-06 18:59 2.29898 104.10491 18519 ft 342 kts 178°
2026-05-06 18:59 2.27525 104.10490 18248 ft 340 kts 178°
2026-05-06 18:59 2.25164 104.10489 17953 ft 339 kts 178°
2026-05-06 18:59 2.22813 104.10489 17677 ft 337 kts 178°
2026-05-06 19:00 2.20472 104.10488 17407 ft 336 kts 178°
2026-05-06 19:00 2.18143 104.10485 17143 ft 334 kts 178°
2026-05-06 19:00 2.15820 104.10486 16876 ft 333 kts 178°
2026-05-06 19:00 2.13541 104.10486 16614 ft 331 kts 178°
2026-05-06 19:01 2.11240 104.10486 16350 ft 330 kts 178°
2026-05-06 19:01 2.08952 104.10484 16091 ft 328 kts 178°
2026-05-06 19:01 2.06671 104.10483 15825 ft 327 kts 178°
2026-05-06 19:01 2.04397 104.10484 15568 ft 326 kts 178°
2026-05-06 19:02 2.02156 104.10485 15399 ft 318 kts 178°
2026-05-06 19:02 1.99975 104.10484 15277 ft 309 kts 178°
2026-05-06 19:02 1.97859 104.10485 15160 ft 300 kts 178°
2026-05-06 19:02 1.95804 104.10491 15026 ft 292 kts 178°
2026-05-06 19:03 1.93789 104.10500 14741 ft 287 kts 178°
2026-05-06 19:03 1.91799 104.10509 14464 ft 285 kts 178°
2026-05-06 19:03 1.89826 104.10519 14236 ft 282 kts 178°
2026-05-06 19:03 1.87868 104.10530 14026 ft 280 kts 178°
2026-05-06 19:04 1.85924 104.10539 13914 ft 280 kts 178°
2026-05-06 19:04 1.83974 104.10550 13714 ft 280 kts 178°
2026-05-06 19:04 1.82033 104.10560 13491 ft 278 kts 178°
2026-05-06 19:04 1.80099 104.10571 13266 ft 277 kts 178°
2026-05-06 19:05 1.78173 104.10582 13049 ft 276 kts 178°
2026-05-06 19:05 1.76253 104.10591 12833 ft 276 kts 178°
2026-05-06 19:05 1.74337 104.10600 12621 ft 274 kts 178°
2026-05-06 19:05 1.72432 104.10609 12404 ft 273 kts 178°
2026-05-06 19:06 1.70533 104.10617 12200 ft 272 kts 178°
2026-05-06 19:06 1.68641 104.10624 11984 ft 271 kts 179°
2026-05-06 19:06 1.66755 104.10630 11774 ft 271 kts 179°
2026-05-06 19:06 1.64878 104.10640 11560 ft 269 kts 178°
2026-05-06 19:07 1.63007 104.10652 11359 ft 268 kts 179°
2026-05-06 19:07 1.61772 104.10666 11214 ft 268 kts 176°
2026-05-06 19:07 1.59314 104.10992 10937 ft 266 kts 171°
2026-05-06 19:07 1.57488 104.11261 10731 ft 265 kts 171°
2026-05-06 19:08 1.55667 104.11529 10521 ft 264 kts 171°
2026-05-06 19:08 1.53853 104.11794 10318 ft 263 kts 171°
2026-05-06 19:08 1.52070 104.12053 10116 ft 262 kts 171°
2026-05-06 19:08 1.50247 104.12321 9900 ft 261 kts 171°
2026-05-06 19:09 1.48474 104.12580 9701 ft 260 kts 171°
2026-05-06 19:09 1.46684 104.12803 9485 ft 259 kts 179°
2026-05-06 19:09 1.44900 104.12601 9277 ft 258 kts 195°
2026-05-06 19:09 1.43227 104.11953 9080 ft 258 kts 203°
2026-05-06 19:10 1.41578 104.11250 8870 ft 257 kts 202°
2026-05-06 19:10 1.39932 104.10549 8677 ft 256 kts 202°
2026-05-06 19:10 1.38293 104.09853 8467 ft 256 kts 202°
2026-05-06 19:10 1.36659 104.09162 8258 ft 254 kts 202°
2026-05-06 19:11 1.35034 104.08475 7976 ft 253 kts 202°
2026-05-06 19:11 1.33419 104.07790 7686 ft 252 kts 202°
2026-05-06 19:11 1.31808 104.07108 7408 ft 250 kts 202°
2026-05-06 19:11 1.30207 104.06431 7130 ft 249 kts 202°
2026-05-06 19:12 1.28576 104.05737 6509 ft 263 kts 203°
2026-05-06 19:12 1.26909 104.05025 6357 ft 257 kts 203°
2026-05-06 19:12 1.25291 104.04338 6226 ft 248 kts 202°
2026-05-06 19:12 1.23751 104.03687 6028 ft 234 kts 202°
2026-05-06 19:13 1.22271 104.03062 5632 ft 229 kts 202°
2026-05-06 19:13 1.20811 104.02446 5174 ft 227 kts 202°
2026-05-06 19:13 1.19361 104.01833 4722 ft 225 kts 202°
2026-05-06 19:13 1.17973 104.01247 4566 ft 210 kts 202°
2026-05-06 19:14 1.16638 104.00683 4322 ft 206 kts 202°
2026-05-06 19:14 1.15345 104.00135 4253 ft 206 kts 202°
2026-05-06 19:14 1.14038 103.99544 4198 ft 207 kts 213°
2026-05-06 19:14 1.13119 103.98476 4102 ft 205 kts 250°
2026-05-06 19:15 1.13020 103.97074 3983 ft 206 kts 284°
2026-05-06 19:15 1.13516 103.95726 3866 ft 208 kts 293°
2026-05-06 19:15 1.14136 103.94429 3743 ft 204 kts 301°
2026-05-06 19:15 1.15047 103.93353 3430 ft 203 kts 321°
2026-05-06 19:16 1.16249 103.92669 3260 ft 197 kts 340°
2026-05-06 19:16 1.17588 103.92424 3076 ft 196 kts 360°
2026-05-06 19:16 1.18925 103.92622 2868 ft 195 kts 19°
2026-05-06 19:16 1.20176 103.93134 2639 ft 194 kts 23°
2026-05-06 19:17 1.21415 103.93657 2396 ft 192 kts 23°
2026-05-06 19:17 1.22620 103.94166 2145 ft 183 kts 23°
2026-05-06 19:17 1.23761 103.94648 1906 ft 172 kts 23°
2026-05-06 19:17 1.24832 103.95100 1676 ft 164 kts 24°
2026-05-06 19:18 1.25872 103.95539 1474 ft 161 kts 24°
2026-05-06 19:18 1.26900 103.95973 1268 ft 159 kts 24°
2026-05-06 19:18 1.27897 103.96393 1058 ft 152 kts 23°
2026-05-06 19:18 1.28865 103.96802 873 ft 150 kts 23°
2026-05-06 19:19 1.29821 103.97205 689 ft 149 kts 23°
2026-05-06 19:19 1.30771 103.97606 509 ft 148 kts 23°
2026-05-06 19:19 1.31714 103.98011 330 ft 148 kts 23°
2026-05-06 19:19 1.32660 103.98408 124 ft 147 kts 22°
2026-05-06 19:20 1.33572 103.98798 31 ft 130 kts 21°
2026-05-06 19:20 1.34250 103.99077 30 ft 81 kts 23°
2026-05-06 19:20 1.34716 103.99274 30 ft 70 kts 22°
2026-05-06 19:20 1.35121 103.99414 30 ft 50 kts
2026-05-06 19:21 1.35341 103.99412 30 ft 17 kts 356°
2026-05-06 19:21 1.35426 103.99402 30 ft 12 kts 353°
2026-05-06 19:21 1.35502 103.99407 30 ft 11 kts 23°
2026-05-06 19:21 1.35583 103.99441 30 ft 14 kts 22°
2026-05-06 19:22 1.35680 103.99482 30 ft 17 kts 22°
2026-05-06 19:22 1.35795 103.99530 30 ft 19 kts 22°
2026-05-06 19:22 1.35926 103.99586 30 ft 22 kts 23°
2026-05-06 19:22 1.36074 103.99648 30 ft 24 kts 23°
2026-05-06 19:23 1.36225 103.99712 30 ft 21 kts 22°
2026-05-06 19:23 1.36364 103.99770 30 ft 18 kts 22°
2026-05-06 19:23 1.36426 103.99761 30 ft 10 kts 307°
2026-05-06 19:23 1.36457 103.99690 30 ft 12 kts 293°
2026-05-06 19:24 1.36495 103.99602 30 ft 15 kts 293°
2026-05-06 19:24 1.36538 103.99503 30 ft 16 kts 292°
2026-05-06 19:24 1.36583 103.99395 30 ft 17 kts 292°
2026-05-06 19:24 1.36583 103.99341 30 ft 10 kts 239°
2026-05-06 19:25 1.36538 103.99280 30 ft 11 kts 232°
2026-05-06 19:25 1.36489 103.99215 30 ft 12 kts 232°
2026-05-06 19:25 1.36438 103.99152 30 ft 7 kts 221°
2026-05-06 19:25 1.36392 103.99129 30 ft 8 kts 201°
2026-05-06 19:26 1.36351 103.99098 30 ft 8 kts 257°
2026-05-06 19:26 1.36375 103.99029 30 ft 8 kts 292°
2026-05-06 19:26 1.36382 103.99015 29 ft 0 kts 292°